Total_Precipitation_Accumulation
1.88 1.82 2.14 2.85 3.26 2.78 2.32 1.84 1.54 1.47 1.34 1.11 0.86 0.83 0.98 1.34 1.74 2.03 2.28 2.16 1.48 1.16 1.19 1.73 2.23 2.04 1.68 1.45 1.38 1.39 1.32 1.34 1.24 1.14 1.00 0.91 0.82 0.76 0.65 0.51 0.50 0.52 0.48 0.44 0.46 0.56 0.57 0.58 0.72
1.31 2.07 2.68 3.40 2.93 2.26 2.09 1.77 1.63 1.40 1.05 0.87 0.64 0.57 0.68 0.71 0.74 1.13 2.15 2.22 1.39 1.10 1.11 1.30 1.84 1.76 1.48 1.31 1.31 1.34 1.28 1.37 1.30 1.10 0.93 0.80 0.79 0.79 0.68 0.61 0.68 0.54 0.46 0.42 0.46 0.57 0.61 0.64 0.75
1.37 2.39 3.24 3.40 2.30 1.99 2.03 1.84 1.50 1.11 0.78 0.74 0.64 0.58 0.72 0.90 0.91 1.30 1.96 1.65 1.22 1.11 1.12 1.47 1.84 1.71 1.51 1.33 1.39 1.43 1.35 1.36 1.22 0.97 0.79 0.75 0.80 0.82 0.82 0.82 0.77 0.53 0.44 0.39 0.44 0.56 0.63 0.66 0.72
1.63 2.66 2.93 2.64 2.09 1.71 1.66 1.62 1.20 0.95 0.74 0.53 0.56 0.62 0.66 0.94 0.93 1.21 1.33 1.15 1.01 1.08 1.08 1.38 1.71 1.65 1.51 1.36 1.39 1.43 1.44 1.41 1.30 1.04 0.86 0.83 0.86 0.83 0.82 0.88 0.75 0.64 0.55 0.47 0.49 0.58 0.64 0.65 0.69
2.07 2.80 2.71 2.29 2.04 1.66 1.41 1.19 0.97 0.90 0.80 0.58 0.53 0.75 1.01 1.28 1.16 1.13 1.09 1.04 0.88 0.94 0.93 1.10 1.49 1.52 1.40 1.34 1.48 1.53 1.53 1.51 1.44 1.19 1.01 0.91 0.85 0.83 0.84 0.90 0.78 0.72 0.65 0.61 0.64 0.68 0.68 0.68 0.72
2.39 2.49 2.64 2.28 2.08 1.78 1.67 1.22 1.03 0.94 0.74 0.62 0.62 0.86 1.32 1.57 1.38 1.26 1.13 1.17 1.13 1.08 0.97 0.93 1.22 1.32 1.28 1.30 1.39 1.43 1.45 1.40 1.36 1.18 1.01 0.94 0.90 0.86 0.92 0.98 0.88 0.82 0.71 0.65 0.68 0.71 0.77 0.79 0.77
2.33 2.41 2.45 1.96 2.01 2.16 1.83 1.19 1.10 0.95 0.85 0.68 0.56 0.95 1.37 1.68 1.47 1.26 1.22 1.25 1.33 1.24 1.15 1.01 1.02 1.10 1.29 1.38 1.36 1.30 1.22 1.20 1.17 1.06 1.01 0.94 0.91 0.85 0.88 0.92 0.86 0.86 0.85 0.80 0.75 0.78 0.85 0.81 0.81
1.79 1.97 1.99 1.91 2.04 2.27 1.59 1.07 0.85 0.80 0.74 0.55 0.50 0.89 1.25 1.29 1.24 1.21 1.36 1.49 1.61 1.42 1.22 1.02 0.95 1.00 1.06 1.13 1.23 1.28 1.26 1.22 1.18 1.04 0.94 0.90 0.85 0.75 0.79 0.75 0.74 0.82 0.94 1.01 0.94 0.92 0.90 0.89 0.83
1.68 2.09 2.31 2.30 2.04 1.82 1.12 0.90 0.78 0.61 0.66 0.64 0.50 0.56 0.72 0.81 0.94 1.10 1.17 1.32 1.41 1.19 1.07 1.07 1.03 1.07 1.10 1.04 1.07 1.25 1.31 1.30 1.14 1.05 0.98 0.88 0.69 0.60 0.67 0.64 0.77 0.89 1.06 1.13 1.15 1.13 1.06 0.96 0.79
1.72 2.22 2.24 1.74 1.46 1.22 0.86 0.78 0.71 0.75 0.80 0.75 0.58 0.59 0.70 0.75 0.92 1.07 0.98 0.99 0.91 0.87 0.86 0.90 0.94 1.04 1.08 0.99 1.21 1.42 1.28 1.13 0.91 0.91 0.83 0.80 0.74 0.71 0.59 0.64 0.84 0.99 1.05 1.05 1.16 1.25 1.10 0.85 0.61
1.41 1.79 1.58 1.38 1.13 0.90 0.77 0.78 0.67 0.73 0.85 0.74 0.60 0.62 0.81 0.90 0.91 0.88 0.80 0.80 0.73 0.77 0.75 0.70 0.74 0.83 0.94 1.08 1.35 1.61 1.65 1.42 1.21 1.01 0.92 0.89 0.78 0.70 0.65 0.64 0.71 0.78 0.82 0.74 0.81 0.86 0.72 0.61 0.58
1.21 1.15 1.14 1.30 1.05 0.91 0.76 0.75 0.75 0.69 0.70 0.61 0.53 0.57 0.76 0.94 0.96 0.81 0.66 0.59 0.57 0.62 0.69 0.56 0.50 0.64 0.77 0.89 1.03 1.29 1.36 1.30 1.15 0.97 0.88 0.93 0.88 0.77 0.73 0.70 0.75 0.77 0.75 0.81 0.84 0.88 0.80 0.64 0.59
1.45 1.24 1.03 1.00 1.04 1.01 0.81 0.77 0.76 0.68 0.58 0.53 0.56 0.69 0.77 0.78 0.76 0.69 0.59 0.52 0.53 0.60 0.68 0.62 0.52 0.52 0.57 0.63 0.71 0.84 1.02 1.13 1.10 1.03 0.86 0.85 0.84 0.80 0.81 0.76 0.80 0.72 0.71 0.80 0.86 0.85 0.87 0.79 0.67
1.29 1.15 1.12 1.06 0.99 0.97 0.95 0.75 0.74 0.85 0.64 0.57 0.65 0.76 0.75 0.68 0.64 0.70 0.62 0.56 0.51 0.54 0.67 0.67 0.57 0.52 0.53 0.53 0.53 0.54 0.69 0.85 1.00 0.99 0.88 0.89 0.89 0.84 0.88 0.85 0.84 0.82 0.76 0.79 0.95 0.89 0.93 0.91 0.85
1.21 1.34 1.24 1.10 1.01 0.98 0.97 1.01 0.89 0.83 0.69 0.66 0.68 0.68 0.70 0.64 0.61 0.69 0.65 0.55 0.50 0.49 0.54 0.61 0.57 0.59 0.62 0.63 0.64 0.54 0.58 0.65 0.79 0.91 0.90 0.95 0.89 0.81 0.85 0.87 0.84 0.83 0.84 0.84 0.89 0.92 0.98 0.90 0.85
1.45 1.58 1.62 1.29 1.11 0.97 1.02 1.27 1.12 0.90 0.75 0.77 0.74 0.66 0.66 0.62 0.57 0.61 0.61 0.58 0.54 0.54 0.57 0.61 0.61 0.65 0.71 0.75 0.78 0.73 0.78 0.81 0.83 0.96 0.93 0.89 0.91 0.88 0.88 0.92 0.93 0.97 1.00 0.98 0.98 1.01 1.04 1.00 0.99
1.58 1.54 1.38 1.21 0.98 0.88 0.92 1.09 1.08 1.00 0.82 0.72 0.66 0.57 0.51 0.45 0.43 0.44 0.45 0.47 0.50 0.50 0.51 0.54 0.63 0.66 0.68 0.74 0.86 1.00 1.04 1.05 1.02 1.06 1.01 0.91 0.89 0.94 1.05 1.08 1.13 1.10 1.12 1.14 1.10 1.12 1.06 1.05 1.07
1.52 1.22 1.01 0.92 0.89 0.84 0.76 0.83 0.88 0.92 0.82 0.63 0.52 0.45 0.41 0.33 0.31 0.31 0.30 0.32 0.38 0.41 0.44 0.48 0.56 0.72 0.84 0.90 0.92 1.08 1.14 1.22 1.31 1.36 1.24 1.10 1.12 1.24 1.39 1.47 1.41 1.39 1.39 1.38 1.34 1.42 1.31 1.13 1.13
1.11 1.03 0.93 0.80 0.79 0.81 0.71 0.68 0.72 0.73 0.72 0.60 0.46 0.37 0.33 0.27 0.20 0.19 0.19 0.22 0.25 0.28 0.34 0.40 0.45 0.61 0.74 0.82 0.93 1.11 1.29 1.46 1.62 1.74 1.64 1.50 1.45 1.62 1.73 1.66 1.74 1.77 1.65 1.64 1.68 1.75 1.70 1.44 1.31
0.97 0.96 0.85 0.73 0.65 0.63 0.59 0.59 0.61 0.58 0.58 0.49 0.38 0.31 0.24 0.18 0.15 0.11 0.09 0.12 0.15 0.18 0.22 0.27 0.34 0.45 0.58 0.72 0.95 1.16 1.46 1.55 1.64 1.78 1.82 1.76 1.69 1.85 1.88 1.96 2.03 2.06 2.05 2.02 1.90 1.98 2.08 1.82 1.60
0.77 0.82 0.76 0.67 0.58 0.53 0.50 0.57 0.56 0.50 0.48 0.43 0.33 0.26 0.20 0.14 0.11 0.08 0.07 0.07 0.12 0.13 0.14 0.21 0.32 0.46 0.67 0.90 1.22 1.50 1.73 1.81 1.86 1.82 1.88 1.97 2.02 2.08 2.10 2.16 2.22 2.22 2.07 2.07 2.15 2.25 2.58 2.39 2.04
0.73 0.55 0.51 0.47 0.50 0.52 0.47 0.65 0.49 0.41 0.41 0.37 0.33 0.30 0.23 0.17 0.12 0.09 0.09 0.09 0.10 0.13 0.17 0.28 0.45 0.64 0.91 1.25 1.60 1.83 2.06 2.15 2.00 1.98 2.02 2.03 1.98 2.01 2.12 2.14 2.13 2.10 2.04 2.10 2.16 2.20 2.57 2.76 2.46
0.50 0.43 0.49 0.47 0.43 0.37 0.30 0.40 0.38 0.35 0.42 0.34 0.27 0.28 0.28 0.24 0.18 0.15 0.17 0.17 0.20 0.26 0.33 0.49 0.74 1.03 1.31 1.53 1.72 1.93 2.06 2.07 2.05 2.02 2.01 1.94 1.91 1.87 1.91 1.93 2.01 2.04 2.09 2.14 2.30 2.40 2.63 2.65 2.65
0.36 0.43 0.53 0.52 0.48 0.44 0.25 0.30 0.38 0.35 0.34 0.30 0.26 0.24 0.23 0.22 0.22 0.23 0.25 0.31 0.38 0.43 0.56 0.74 0.91 1.20 1.38 1.49 1.61 1.80 1.95 1.99 2.01 2.00 1.99 1.98 1.95 1.86 1.79 1.76 1.82 1.94 2.11 2.17 2.25 2.38 2.61 2.71 2.79
0.35 0.52 0.73 0.78 0.71 0.51 0.26 0.38 0.46 0.39 0.31 0.25 0.24 0.25 0.23 0.27 0.30 0.30 0.39 0.54 0.62 0.66 0.75 0.89 0.96 1.14 1.25 1.30 1.38 1.53 1.60 1.67 1.72 1.71 1.67 1.62 1.57 1.56 1.58 1.66 1.76 1.89 2.01 2.09 2.21 2.35 2.39 2.50 2.73
0.30 0.41 0.70 0.79 0.68 0.49 0.37 0.57 0.57 0.39 0.32 0.28 0.26 0.24 0.28 0.38 0.46 0.56 0.69 0.78 0.85 0.86 0.83 0.84 0.97 1.02 1.00 1.03 1.04 1.16 1.26 1.32 1.39 1.39 1.39 1.42 1.45 1.46 1.39 1.43 1.53 1.77 1.97 2.05 2.14 2.16 2.13 2.18 2.36
0.27 0.30 0.35 0.51 0.46 0.47 0.47 0.70 0.67 0.40 0.33 0.30 0.28 0.30 0.37 0.52 0.71 0.92 1.10 1.20 1.27 1.18 0.99 0.85 0.86 0.85 0.82 0.88 0.92 0.97 1.07 1.12 1.15 1.18 1.14 1.23 1.27 1.25 1.20 1.22 1.26 1.39 1.63 1.88 2.04 1.98 1.90 1.87 2.02
0.24 0.32 0.40 0.61 0.74 0.69 0.64 0.80 0.77 0.56 0.45 0.37 0.39 0.50 0.67 0.87 1.14 1.39 1.62 1.73 1.70 1.51 1.24 0.96 0.80 0.76 0.73 0.75 0.81 0.87 0.92 0.93 0.92 0.96 0.91 0.97 1.06 1.05 1.05 1.06 1.10 1.23 1.34 1.55 1.78 1.88 1.83 1.80 1.85
0.26 0.37 0.46 0.60 0.67 0.86 0.97 1.02 0.82 0.74 0.67 0.64 0.71 0.89 1.11 1.38 1.56 1.71 1.86 1.89 1.63 1.44 1.20 0.93 0.79 0.81 0.81 0.80 0.80 0.81 0.79 0.78 0.77 0.76 0.74 0.76 0.82 0.81 0.85 1.02 1.08 1.15 1.23 1.40 1.66 1.83 1.84 1.77 1.77
0.36 0.54 0.70 0.97 0.91 0.87 1.08 1.16 0.85 0.78 0.83 0.86 0.98 1.03 1.13 1.29 1.31 1.39 1.45 1.40 1.35 1.30 1.12 0.96 0.87 0.88 0.91 0.90 0.88 0.81 0.73 0.70 0.69 0.67 0.60 0.61 0.59 0.58 0.70 0.84 0.89 0.92 0.97 1.15 1.45 1.64 1.68 1.65 1.56